Location: ????????
(60.5616°N, 46.8254°E)
Time: 22:08:56
(UTC+00:00)

Cosmos 2297 Rocket - Pass Details

Date: 18 February 2020
Orbit: 838 x 844 km, 71.0° (Epoch: 05 April)

Event Time Altitude Azimuth Distance (km) Brightness Sun altitude
Rises 18:26:09 0° 320° (NW) 3,417 6.4 -32.9°
Reaches altitude 10° 18:28:38 10° 317° (NW) 2,479 5.5 -33.2°
Enters shadow 18:32:48 47° 293° (WNW) 1,118 3.0 -33.5°
